K7TUS-6 Weather Reports


Display with metric or nautical units.
time (UTC)temp
F
wind
direction
speed
MPH
gust
MPH
rain 1hr
in
rain 24hr
in
rain mn
in
humidity
%
barometer
mb
20260505054508 39 333 16.0 19.0 0.00 0.00 0.00 44 980.1
20260505054007 38 305 14.0 17.0 0.00 0.00 0.00 45 980.3
20260505053506 38 322 15.0 18.0 0.00 0.00 0.00 45 979.8
20260505053006 39 333 14.0 17.0 0.00 0.00 0.00 46 980.2
20260505052505 38 332 14.0 20.0 0.00 0.00 0.00 46 979.6
20260505052005 38 268 14.0 18.0 0.00 0.00 0.00 47 979.3
20260505051504 38 316 10.0 19.0 0.00 0.00 0.00 47 979.8
20260505051004 38 292 9.0 14.0 0.00 0.00 0.00 48 979.4
20260505050521 38 291 14.0 21.0 0.00 0.00 0.00 46 980.0
20260505041504 41 271 9.0 11.0 0.00 0.00 0.00 48 980.9
20260505041003 41 295 17.0 17.0 0.00 0.00 0.00 47 981.5
20260505040503 41 295 17.0 17.0 0.00 0.00 0.00 47 981.5
20260505040007 40 301 11.0 11.0 0.00 0.00 0.00 46 980.3
20260505035507 40 310 11.0 11.0 0.00 0.00 0.00 46 980.3
20260505035006 41 306 9.0 9.0 0.00 0.00 0.00 48 981.1
20260505034505 41 306 9.0 9.0 0.00 0.00 0.00 48 981.1
20260505034005 41 306 9.0 9.0 0.00 0.00 0.00 48 981.1
20260505033504 40 253 5.0 9.0 0.00 0.00 0.00 51 980.4
20260505032009 41 30 8.0 17.0 0.00 0.00 0.00 49 980.5
20260505031508 41 6 12.0 16.0 0.00 0.00 0.00 47 980.3
20260505031008 41 27 9.0 12.0 0.00 0.00 0.00 49 980.7
20260505030507 41 72 9.0 15.0 0.00 0.00 0.00 50 980.9
20260505030005 41 108 5.0 10.0 0.00 0.00 0.00 54 980.0
20260505025505 41 131 5.0 10.0 0.00 0.00 0.00 51 980.2
20260505024504 42 9 10.0 17.0 0.00 0.00 0.00 47 979.8
20260505024003 41 1 11.0 15.0 0.00 0.00 0.00 47 979.8
20260505023509 42 27 12.0 17.0 0.00 0.00 0.00 48 979.6
20260505023008 41 358 10.0 17.0 0.00 0.00 0.00 50 979.4
20260505022508 42 102 9.0 16.0 0.00 0.00 0.00 51 979.3
20260505022007 41 49 10.0 13.0 0.00 0.00 0.00 48 979.4
20260505021507 41 345 10.0 12.0 0.00 0.00 0.00 47 979.4
20260505021006 41 14 12.0 12.0 0.00 0.00 0.00 48 980.4
20260505020504 41 10 15.0 19.0 0.00 0.00 0.00 45 980.2
20260505020004 40 4 22.0 26.0 0.00 0.00 0.00 46 979.9
20260505015503 41 32 5.0 6.0 0.00 0.00 0.00 49 980.3
20260505015008 41 332 6.0 7.0 0.00 0.00 0.00 50 979.8
20260505014508 40 347 4.0 6.0 0.00 0.00 0.00 51 980.3
20260505014007 40 358 5.0 7.0 0.00 0.00 0.00 52 980.8
20260505013507 40 33 5.0 7.0 0.00 0.00 0.00 50 979.8
20260505013006 40 1 9.0 9.0 0.00 0.00 0.00 49 980.1
20260505012505 40 4 9.0 11.0 0.00 0.00 0.00 49 979.7
20260505012005 41 7 9.0 9.0 0.00 0.00 0.00 49 979.7
20260505011504 40 9 9.0 10.0 0.00 0.00 0.00 48 979.8
20260505011004 40 30 7.0 8.0 0.00 0.00 0.00 49 980.1
20260505010509 40 359 7.0 7.0 0.00 0.00 0.00 49 979.9
20260505010009 40 359 7.0 7.0 0.00 0.00 0.00 50 980.0
20260505005507 40 15 8.0 9.0 0.00 0.00 0.00 52 979.5
20260505005007 40 241 4.0 6.0 0.00 0.00 0.00 59 979.9
20260505004006 40 266 4.0 10.0 0.00 0.00 0.00 57 980.4
20260505003506 40 354 2.0 5.0 0.00 0.00 0.00 59 980.3
20260505002505 41 218 3.0 5.0 0.00 0.00 0.00 62 980.1
20260505002004 40 226 10.0 20.0 0.00 0.00 0.00 58 979.6
20260505001504 41 121 6.0 11.0 0.00 0.00 0.00 63 979.8
20260505001003 40 228 7.0 12.0 0.00 0.00 0.00 60 978.6
20260505000509 40 244 6.0 13.0 0.00 0.00 0.00 59 979.4
20260505000008 40 258 6.0 13.0 0.00 0.00 0.00 57 979.5
20260504235507 40 246 2.0 7.0 0.00 0.00 0.00 62 979.1
20260504235007 39 233 5.0 13.0 0.00 0.00 0.00 57 979.3
20260504234506 38 275 4.0 15.0 0.00 0.00 0.00 56 979.9
20260504234005 37 332 4.0 5.0 0.00 0.00 0.00 46 981.0
20260504233505 37 357 4.0 8.0 0.00 0.00 0.00 42 981.8
20260504233004 39 187 28.0 33.0 0.00 0.00 0.00 38 981.8
20260504232503 40 177 24.0 28.0 0.00 0.00 0.00 38 981.5
20260504232003 40 177 19.0 29.0 0.00 0.00 0.00 38 981.5
20260504231508 41 172 21.0 28.0 0.00 0.00 0.00 34 982.3
20260504231007 41 169 14.0 22.0 0.00 0.00 0.00 34 982.3
20260504230507 42 187 13.0 20.0 0.00 0.00 0.00 27 981.8
20260504230006 42 173 18.0 27.0 0.00 0.00 0.00 26 981.0
20260504225505 44 177 20.0 26.0 0.00 0.00 0.00 22 981.9
20260504225005 44 183 17.0 25.0 0.00 0.00 0.00 19 982.3
20260504224504 47 194 4.0 15.0 0.00 0.00 0.00 16 982.6
20260504224003 49 197 10.0 17.0 0.00 0.00 0.00 11 981.8
20260504223509 48 182 16.0 22.0 0.00 0.00 0.00 9 982.5
20260504223008 49 168 11.0 21.0 0.00 0.00 0.00 10 982.4
20260504222507 50 211 11.0 25.0 0.00 0.00 0.00 7 982.2
20260504222007 50 217 19.0 24.0 0.00 0.00 0.00 6 982.2
20260504221506 51 209 17.0 26.0 0.00 0.00 0.00 6 983.0
20260504221006 53 190 5.0 10.0 0.00 0.00 0.00 6 982.7
20260504220505 54 182 6.0 10.0 0.00 0.00 0.00 7 983.1
20260504220004 54 219 11.0 21.0 0.00 0.00 0.00 6 983.3
20260504215503 55 148 10.0 19.0 0.00 0.00 0.00 5 983.1
20260504215003 56 177 8.0 15.0 0.00 0.00 0.00 4 983.9
20260504214508 56 177 16.0 19.0 0.00 0.00 0.00 4 982.9
20260504214008 59 302 3.0 4.0 0.00 0.00 0.00 2 983.1
20260504213507 58 330 3.0 3.0 0.00 0.00 0.00 3 983.2
20260504213007 55 187 6.0 6.0 0.00 0.00 0.00 2 983.0
20260504212506 55 171 9.0 16.0 0.00 0.00 0.00 2 983.4
20260504212006 52 166 17.0 17.0 0.00 0.00 0.00 4 983.0
20260504211505 52 166 17.0 17.0 0.00 0.00 0.00 4 983.0
20260504211005 54 191 32.0 32.0 0.00 0.00 0.00 1 984.3
20260504210504 54 191 32.0 32.0 0.00 0.00 0.00 1 984.3
20260504210004 57 201 4.0 4.0 0.00 0.00 0.00 4 983.9
20260504205503 54 195 22.0 22.0 0.00 0.00 0.00 2 983.5
20260504205008 58 181 1.0 1.0 0.00 0.00 0.00 3 983.5
20260504204508 58 195 5.0 5.0 0.00 0.00 0.00 4 983.0
20260504204007 56 205 8.0 8.0 0.00 0.00 0.00 3 983.6
20260504203506 56 183 5.0 7.0 0.00 0.00 0.00 5 983.8
20260504203006 55 246 5.0 8.0 0.00 0.00 0.00 7 983.5
20260504202505 53 186 17.0 24.0 0.00 0.00 0.00 5 983.5
20260504201504 53 175 5.0 15.0 0.00 0.00 0.00 4 984.1
20260504201004 52 174 13.0 19.0 0.00 0.00 0.00 4 983.8
20260504200504 54 173 10.0 16.0 0.00 0.00 0.00 4 983.7
20260504200027 56 186 4.0 9.0 0.00 0.00 0.00 2 984.9
20260504195508 57 161 6.0 10.0 0.00 0.00 0.00 1 983.9
20260504194507 58 102 7.0 10.0 0.00 0.00 0.00 100 983.5
20260504194007 58 165 12.0 15.0 0.00 0.00 0.00 1 983.3
20260504193506 60 167 8.0 13.0 0.00 0.00 0.00 1 983.7
20260504193006 61 147 7.0 8.0 0.00 0.00 0.00 1 983.9
20260504192505 62 141 5.0 6.0 0.00 0.00 0.00 1 984.6
20260504192004 61 161 4.0 5.0 0.00 0.00 0.00 1 983.6
20260504191504 60 181 3.0 6.0 0.00 0.00 0.00 1 983.4
20260504191003 58 161 8.0 12.0 0.00 0.00 0.00 1 983.9
20260504190008 58 14 5.0 10.0 0.00 0.00 0.00 1 983.3
20260504185508 57 182 13.0 17.0 0.00 0.00 0.00 1 984.1
20260504185007 57 185 5.0 11.0 0.00 0.00 0.00 1 983.5
20260504184506 57 161 7.0 11.0 0.00 0.00 0.00 1 983.9
20260504184006 57 177 6.0 9.0 0.00 0.00 0.00 1 984.8
20260504183505 55 181 12.0 16.0 0.00 0.00 0.00 1 983.6
20260504182504 58 166 6.0 9.0 0.00 0.00 0.00 1 984.7
20260504182003 58 142 3.0 6.0 0.00 0.00 0.00 1 984.3
20260504181009 58 175 3.0 8.0 0.00 0.00 0.00 1 983.8
20260504180508 58 245 4.0 9.0 0.00 0.00 0.00 1 984.5
20260504175507 54 174 10.0 15.0 0.00 0.00 0.00 1 983.6
20260504175006 55 179 7.0 13.0 0.00 0.00 0.00 2 984.4
20260504174505 54 183 5.0 13.0 0.00 0.00 0.00 2 983.6
20260504174005 54 175 6.0 10.0 0.00 0.00 0.00 100 983.2
20260504173003 53 179 16.0 19.0 0.00 0.00 0.00 2 984.2
20260504172508 54 208 8.0 16.0 0.00 0.00 0.00 3 983.2
20260504172008 55 208 4.0 10.0 0.00 0.00 0.00 2 983.1
20260504171507 53 194 8.0 16.0 0.00 0.00 0.00 1 982.4
20260504171006 54 186 6.0 13.0 0.00 0.00 0.00 1 983.8
20260504170506 55 169 11.0 15.0 0.00 0.00 0.00 1 983.2
20260504151008 47 152 3.0 6.0 0.00 0.00 0.00 24 982.0
20260504141007 43 182 16.0 22.0 0.00 0.00 0.00 27 981.7
20260504140507 44 8 4.0 7.0 0.00 0.00 0.00 30 981.4
20260504130503 43 176 8.0 8.0 0.00 0.00 0.00 27 980.0
20260504110508 44 168 11.0 19.0 0.00 0.00 0.00 18 980.0
20260504081508 44 188 12.0 25.0 0.00 0.00 0.00 20 980.0
20260504080507 44 177 32.0 50.0 0.00 0.00 0.00 15 980.2